Location: Kailua
(21.4020°N, 157.7390°W)
Time: 02:28:07
(UTC-10:00)

Daily predictions for brighter satellites

Satellite Brightness Start Highest point End
(mag) Time Altitude Azimuth Time Altitude Azimuth Time Altitude Azimuth
Resurs 1-4 Rocket 4.3 02:01:16 10° NNE 02:03:08 22° NNE 02:03:08 22° NNE
ATLAS 5 CENTAUR R/B 4.3 02:39:26 32° NNW 02:39:26 32° NNW 02:47:41 10° NNE
SL-16 R/B 3.1 02:50:34 50° N 02:50:34 50° N 02:55:01 10° NNW
BREEZE M DEB (TANK) 4.3 02:53:26 72° NE 02:53:26 72° NE 03:05:35 10° NE
Cosmos 1605 Rocket 4.3 02:49:07 10° N 02:54:15 61° NNE 02:54:15 61° NNE
ATLAS CENTAUR Rocket 3.2 02:56:34 36° NE 02:56:34 36° NE 03:00:47 10° ENE
Cosmos 1656 4.4 02:59:02 51° NNE 02:59:02 51° NNE 03:03:13 10° NNE
Ariane H10+ 4.4 03:05:44 41° S 03:06:54 41° SSE 03:33:20 10° ESE
ADEOS II 2.7 03:07:03 10° NNE 03:11:55 49° E 03:11:55 49° E
Centaur D AC-28 2.8 02:57:01 10° WNW 03:13:19 81° NNE 03:17:38 10° ESE
ATLAS 2A CENTAUR R/B 3.7 03:12:01 33° W 03:19:27 72° NNW 03:26:40 10° ENE
Lacrosse 5 rocket 3.0 03:21:25 30° E 03:21:25 30° E 03:24:17 10° NE
CZ-2D R/B 4.1 03:21:11 10° NNW 03:23:05 17° NW 03:23:05 17° NW
Cosmos 1697 Rocket 2.7 03:34:18 68° WNW 03:34:18 68° WNW 03:39:46 10° N
Meteor 1-14 Rocket 4.3 03:37:17 59° WNW 03:37:17 59° WNW 03:42:38 10° N
Cosmos 1000 Rocket 4.4 03:37:53 64° SSW 03:38:52 79° W 03:45:13 10° N
Stardust Del rocket 3.7 03:40:05 77° NE 03:40:05 77° NE 03:46:46 10° E
Meteor 1-25 Rocket 4.4 03:41:00 53° WNW 03:41:00 53° WNW 03:46:00 10° N
ARIANE 5 R/B 4.2 03:37:02 10° NNW 03:39:24 20° NW 03:39:24 20° NW
NOSS 2-1 (E) 4.1 03:43:12 44° ENE 03:43:12 44° ENE 03:46:00 10° NE
Resurs 1-4 Rocket 4.4 03:44:10 10° NW 03:44:13 10° NW 03:44:13 10° NW
Cosmos 2173 Rocket 4.1 03:43:01 10° N 03:49:05 73° E 03:53:10 22° SSE
Cosmos 1908 Rocket 3.7 03:55:54 59° WNW 03:55:54 59° WNW 03:59:58 10° N
COSMOS 2455 4.2 03:51:52 10° NW 03:54:34 23° WNW 03:54:34 23° WNW
Cosmos 1674 Rocket 3.3 03:54:51 10° N 03:59:09 75° W 03:59:10 75° W
SL-16 R/B 4.0 03:54:42 10° SSE 03:59:18 26° ESE 04:03:53 10° NE
Cosmos 1980 Rocket 2.1 04:00:10 51° SW 04:01:32 72° WNW 04:07:08 10° NNE
Cosmos 2219 4.4 04:00:49 10° NW 04:03:53 25° WNW 04:03:53 25° WNW
Atlas Centaur 2 1.1 04:06:06 72° WNW 04:06:23 78° NNW 04:10:44 10° ENE
Cosmos 1271 Rocket 3.5 04:10:59 38° WNW 04:10:59 38° WNW 04:14:13 10° N
CZ-3 R/B 3.5 03:52:43 28° SW 04:10:54 71° SSE 04:19:16 10° ENE
Meteor 1-11 Rocket 3.8 04:11:42 19° S 04:15:38 73° E 04:21:11 10° N
Cosmos 2016 Rocket 4.0 04:11:46 10° N 04:18:09 90° SSE 04:24:25 10° S
GEOS 3 Rocket 3.6 04:13:59 10° NNE 04:19:12 77° ESE 04:22:01 28° SSW
Cosmos 1975 Rocket 4.3 04:16:08 10° NNE 04:20:24 43° E 04:24:38 10° SSE
PSLV R/B 4.2 04:19:30 10° NNE 04:23:35 65° ESE 04:26:24 19° S
Iridium 96 3.6 04:21:55 10° N 04:24:35 79° E 04:24:35 79° E
NOSS 3-1 (C) 4.1 04:18:37 10° NNW 04:26:49 78° WSW 04:35:30 10° SSE
CZ-4B R/B 3.0 04:23:29 10° NNE 04:27:46 87° E 04:30:46 20° S
Meteosat 1 Rocket2 4.2 04:25:11 16° WNW 04:28:38 37° N 04:32:19 10° ENE
Cosmos 2297 Rocket 2.2 04:23:25 10° NNW 04:28:57 59° WSW 04:34:28 10° S
Tiangong 2 1.3 04:30:23 41° NNW 04:30:23 41° NNW 04:32:46 10° NE
BREEZE-M DEB (TANK) 3.1 04:30:37 29° NW 04:30:37 29° NW 04:32:38 10° NNE
Cosmos 1802 Rocket 4.1 04:24:51 10° NNW 04:30:51 54° W 04:36:19 12° SSW
Okean 1 3.7 04:27:47 10° NNW 04:31:31 42° W 04:32:37 33° SW
Cosmos 1340 Rocket 3.2 04:29:30 10° N 04:33:22 61° E 04:37:13 10° SSE
Cosmos 1536 2.7 04:34:11 18° S 04:37:06 85° W 04:41:11 10° N
Cosmos 2227 Rocket 2.5 04:32:26 10° NW 04:37:43 42° WSW 04:43:00 10° S
SL-8 R/B 3.6 04:35:07 10° NW 04:39:55 81° SW 04:44:42 10° SE
Delta 168 3.0 04:38:30 30° SW 04:40:04 54° SSE 04:44:45 10° E
Cosmos 2061 Rocket 4.3 04:34:28 10° NNW 04:40:22 45° W 04:46:20 10° SSW
Milstar 3 Cent rocket 4.0 04:25:27 10° WNW 04:40:37 60° N 04:47:41 10° E
Aureole 2 Rocket 2.9 04:38:30 15° S 04:41:03 53° ESE 04:44:06 10° NNE
Okean O Rocket 2.0 04:39:43 10° NNE 04:44:08 64° E 04:48:32 10° S
PSLV R/B 4.5 04:41:23 10° NNW 04:45:15 32° WNW 04:47:17 21° WSW
Meteor 1-31 Rocket 3.1 04:41:45 10° NNE 04:45:39 68° ESE 04:49:33 10° S
Centaur D-1AR AC-39 2.5 04:44:31 23° WSW 04:46:04 34° S 04:51:40 10° SE
Cosmos 1538 Rocket 4.0 04:41:38 10° NNW 04:46:59 77° WSW 04:52:16 10° S
Cosmos 1300 Rocket 4.3 04:45:43 10° S 04:49:58 52° E 04:54:12 10° NNE
ADEOS II 4.0 04:49:08 10° NW 04:51:20 13° WNW 04:52:52 11° W
Cosmos 1725 Rocket 4.0 04:46:00 10° NNW 04:52:11 62° W 04:58:20 10° S
Cosmos 1898 Rocket 3.5 04:47:28 10° SSW 04:52:41 85° ESE 04:57:56 10° NNE
Cosmos 1356 3.5 04:49:40 10° NNW 04:53:04 56° W 04:56:27 10° S
Cosmos 2233 Rocket 4.2 04:47:36 10° N 04:53:53 78° E 05:00:06 10° S
CZ-4B DEB 4.2 04:49:25 10° NNE 04:54:55 87° WNW 05:00:25 10° SSW
Okean 2 Rocket 3.7 04:53:17 16° SW 04:56:19 37° W 05:00:24 10° NNW
FUSE 3.9 04:53:46 16° WSW 04:58:05 90° SSE 05:03:27 10° ENE
Lacrosse 5 rocket 3.5 04:57:06 11° W 04:59:32 16° NW 05:02:17 10° N
DELTA 2 R/B(2) 3.7 05:00:44 27° SW 05:00:49 28° SW 05:02:34 10° SSE
GPS 2-12 Rocket1 3.1 04:59:03 13° W 05:03:15 75° S 05:07:58 10° E
NOSS 3-1 (A) 4.2 04:55:47 10° NW 05:03:56 63° WSW 05:12:30 10° SSE
GPS 2-14 Rocket1 4.2 05:02:17 15° SW 05:04:06 20° SSW 05:07:05 10° SSE
Cosmos 1937 Rocket 3.6 04:59:31 10° S 05:04:39 76° ESE 05:09:47 10° NNE
NOSS 3-3 (A) 4.3 05:01:21 13° SW 05:06:20 47° WNW 05:12:18 10° NNE
NOSS 3-3 (C) 4.3 05:01:28 13° SW 05:06:29 48° WNW 05:12:28 10° NNE
Lacrosse 5 2.6 05:02:10 10° NNW 05:07:09 57° NE 05:12:06 10° SE
Okean 1 Rocket 4.0 05:07:58 10° SSE 05:12:10 49° E 05:16:21 10° NNE
Cosmos 2322 Rocket 2.3 05:07:05 10° SSW 05:12:37 58° WNW 05:18:09 10° N
Cosmos 990 Rocket 4.0 05:11:06 10° SSW 05:16:14 77° WNW 05:21:25 10° N
SL-24 R/B - RUBIN 2 4.0 05:12:21 10° NW 05:16:38 44° WSW 05:21:18 10° S
Cosmos 1242 Rocket 3.3 05:18:28 10° S 05:22:04 56° E 05:25:37 10° NNE
H-2A R/B 4.5 04:11:39 10° WNW 05:24:03 84° SSW 05:29:33 10° ESE
Cosmos 1500 3.9 05:22:04 10° SSW 05:25:37 36° W 05:29:11 10° NNW
IDEFIX/ARIANE 42P 2.6 05:24:22 10° N 05:29:31 64° WNW 05:34:38 10° SSW
MSX 4.1 05:26:07 10° NNE 05:31:53 78° ESE 05:37:39 10° S
ATLAS 2A CENTAUR R/B 2.9 05:26:36 10° WNW 05:35:18 52° N 05:39:18 10° ENE
